[[{"header":{"parameterUnit":"m.s-1","parameterCategory":1,"la1":30.2991,"la2":30.254,"lo1":-89.0895,"lo2":-89.0444,"dy":0.0017,"dx":0.0017,"nx":28,"ny":28,"refTime":"2025-04-05T03:00:00:Z","depth":0,"parameterNumber":2,"parameterNumberName":"U-component_of_WINDS"},"data":[0,0,0,0,0,0,0,0,0,0,0,0,0,0,0,0,0,0,0,0,0,0,0,0,0,0,0,0,0,0,0,0,0,0,0,0,0,0,0,0,0,0,0,0,0,0,0,0,0,0,0,0,0,0,0,0,0,0,-0.3198,-0.3199,0,-0.3285,-0.3286,-0.3287,-0.3353,-0.3353,-0.3354,-0.3354,-0.3446,-0.3447,-0.3449,0,0,0,0,0,0,0,0,0,0,0,0,0,-0.3094,-0.3096,-0.3198,-0.3199,-0.3201,-0.3284,-0.3286,-0.3287,-0.3353,-0.3353,-0.3354,-0.3355,-0.3445,-0.3447,-0.3449,0,0,0,0,0,0,0,0,0,0,0,0,0,-0.3156,-0.3096,-0.3198,-0.3243,-0.3248,-0.3284,-0.3286,-0.3287,-0.3352,-0.3353,-0.3354,-0.3355,-0.3444,-0.3447,-0.345,-0.3449,0,0,-0.3458,-0.3459,0,0,0,0,0,0,0,0,-0.3152,-0.3159,-0.3236,-0.324,-0.3246,-0.3309,-0.3282,-0.3341,-0.3352,-0.3313,-0.3354,-0.3356,-0.3399,-0.3406,-0.342,-0.3453,-0.3457,-0.3458,-0.346,-0.3461,-0.3462,0,0,0,0,0,0,0,-0.3148,-0.3156,-0.3233,-0.3237,-0.3243,-0.326,-0.327,-0.3294,-0.335,-0.3316,-0.3321,-0.3331,-0.3403,-0.3417,-0.3423,-0.3458,-0.3458,-0.3461,-0.3463,-0.3464,-0.3495,-0.3495,0,0,0,0,0,0,-0.3136,-0.3152,-0.323,-0.3235,-0.32,-0.3262,-0.3273,-0.3288,-0.335,-0.336,-0.333,-0.3333,-0.3412,-0.342,-0.3426,-0.343,-0.3461,-0.3464,-0.3466,-0.3496,-0.3495,-0.3494,0,0,0,0,0,0,-0.3133,-0.3142,-0.3226,-0.3195,-0.3207,-0.3262,-0.3279,-0.3289,-0.3304,-0.336,-0.3371,-0.3334,-0.3413,-0.3422,-0.3443,-0.3434,-0.3465,-0.3468,-0.3497,-0.3496,-0.3495,-0.3436,0,0,0,0,0,0,-0.313,-0.3141,-0.314,-0.3194,-0.3208,-0.324,-0.3278,-0.329,-0.3308,-0.3314,-0.3367,-0.3377,-0.3415,-0.3438,-0.3445,-0.3438,-0.347,-0.3498,-0.3497,-0.3495,-0.3439,-0.3433,-0.3428,0,0,0,0,0,-0.3126,-0.3121,-0.314,-0.3149,-0.3209,-0.3239,-0.3247,-0.329,-0.3307,-0.3308,-0.3344,-0.3375,-0.3434,-0.344,-0.3448,-0.3442,-0.3499,-0.3497,-0.3495,-0.3441,-0.3434,-0.3428,0,0,0,0,0,0,-0.3065,-0.3129,-0.3151,-0.3162,-0.3195,-0.325,-0.3252,-0.3281,-0.331,-0.3314,-0.3366,-0.3378,-0.3393,-0.342,-0.3425,-0.3445,-0.347,-0.347,-0.3426,-0.342,-0.3414,-0.3408,-0.3472,0,0,0,0,0,-0.3052,-0.3071,-0.3126,-0.3131,-0.3146,-0.3196,-0.3211,-0.3241,-0.3277,-0.3292,-0.3329,-0.3364,-0.3391,-0.3407,-0.3434,-0.3443,-0.3457,-0.3443,-0.3438,-0.3433,-0.3432,-0.344,-0.3435,-0.3488,-0.3488,-0.3488,0,0,-0.3027,-0.3065,-0.3073,-0.312,-0.3149,-0.3168,-0.3207,-0.3226,-0.3241,-0.3295,-0.3316,-0.3345,-0.3388,-0.3402,-0.3411,-0.3425,-0.342,-0.343,-0.3426,-0.3428,-0.3437,-0.3432,-0.3428,-0.3487,-0.3487,-0.3487,0,0,-0.2992,-0.3021,-0.3029,-0.3057,-0.3099,-0.3133,-0.3134,-0.3186,-0.3207,-0.3229,-0.327,-0.3289,-0.3333,-0.3362,-0.3382,-0.3358,-0.3389,-0.3366,-0.3336,-0.3343,-0.3339,-0.3336,-0.3327,-0.3324,-0.3365,-0.3365,-0.3365,0,-0.2955,-0.2985,-0.3029,-0.3045,-0.3065,-0.3114,-0.3123,-0.3148,-0.3198,-0.3211,-0.3226,-0.3283,-0.3315,-0.3337,-0.3331,-0.3346,-0.3351,-0.336,-0.3336,-0.3333,-0.333,-0.3323,-0.332,-0.3362,-0.3362,-0.3362,-0.3363,0,-0.2938,-0.2958,-0.2959,-0.3005,-0.3025,-0.3037,-0.3085,-0.31,-0.3129,-0.3161,-0.3183,-0.3223,-0.326,-0.3267,-0.3296,-0.3294,-0.3302,-0.3326,-0.3353,-0.3321,-0.3316,-0.3313,-0.3357,-0.3358,-0.3359,-0.336,0,0,-0.2866,-0.2936,-0.2936,-0.2958,-0.3009,-0.3026,-0.3041,-0.3076,-0.3088,-0.3121,-0.3135,-0.3172,-0.3194,-0.3217,-0.3249,-0.3255,-0.3234,-0.3279,-0.3281,-0.327,-0.3236,-0.3218,-0.3214,-0.3255,-0.3255,-0.3254,-0.3233,0,-0.2839,-0.2867,-0.2908,-0.2923,-0.2943,-0.299,-0.3003,-0.3037,-0.3067,-0.3089,-0.3123,-0.3148,-0.3176,-0.319,-0.3198,-0.3235,-0.3228,-0.3237,-0.327,-0.3271,-0.3258,-0.3211,-0.3192,-0.317,-0.3231,-0.3231,-0.323,0,-0.281,-0.2839,-0.2856,-0.2906,-0.2916,-0.2927,-0.2963,-0.2983,-0.3022,-0.3044,-0.3069,-0.3104,-0.3124,-0.3148,-0.3176,-0.3181,-0.3198,-0.3218,-0.3218,-0.3223,-0.3248,-0.3215,-0.3164,-0.316,-0.3227,-0.3227,-0.3228,0,-0.2756,-0.28,-0.2816,-0.2833,-0.2892,-0.2898,-0.2923,-0.2963,-0.2982,-0.3014,-0.3026,-0.306,-0.3079,-0.3105,-0.3148,-0.3161,-0.3172,-0.32,-0.3192,-0.3191,-0.3192,-0.3191,-0.3143,-0.3202,-0.3202,-0.3202,-0.3202,0,-0.2721,-0.273,-0.2793,-0.2802,-0.2814,-0.2861,-0.2872,-0.2901,-0.2937,-0.2954,-0.2997,-0.3013,-0.3069,-0.3092,-0.3126,-0.3145,-0.3153,-0.3172,-0.3181,-0.3168,-0.3166,-0.318,-0.3182,-0.3201,-0.3201,-0.3201,-0.3201,0,-0.2663,-0.2705,-0.2726,-0.2779,-0.2793,-0.2799,-0.2846,-0.2858,-0.2891,-0.2912,-0.292,-0.2972,-0.3001,-0.3047,-0.309,-0.3113,-0.3126,-0.3141,-0.3112,-0.3118,-0.3107,-0.3108,-0.3066,-0.3063,-0.3123,-0.3122,-0.3122,0,-0.2638,-0.2646,-0.27,-0.2714,-0.2737,-0.2759,-0.2778,-0.2826,-0.2844,-0.2889,-0.2896,-0.2928,-0.2956,-0.3001,-0.3043,-0.3076,-0.3093,-0.3076,-0.3098,-0.3085,-0.3093,-0.3092,-0.3094,-0.3071,-0.307,-0.3069,-0.3068,0,-0.259,-0.261,-0.2635,-0.2668,-0.2689,-0.2717,-0.2747,-0.2757,-0.2811,-0.283,-0.2859,-0.2881,-0.2924,-0.2956,-0.2995,-0.3022,-0.3055,-0.3061,-0.3061,-0.3048,-0.3032,-0.3041,-0.3098,-0.3062,-0.3063,-0.3063,-0.3063,-0.3064,-0.2549,-0.2558,-0.2597,-0.2623,-0.2651,-0.2678,-0.2692,-0.2727,-0.2752,-0.279,-0.2817,-0.2845,-0.2885,-0.2941,-0.2966,-0.299,-0.3004,-0.3004,-0.3004,-0.3003,-0.2999,-0.3027,-0.2997,-0.2997,-0.2998,-0.2998,-0.2998,0,-0.2503,-0.253,-0.2554,-0.2595,-0.2616,-0.2643,-0.2678,-0.2695,-0.2718,-0.2753,-0.2779,-0.2813,-0.2845,-0.2889,-0.2924,-0.2935,-0.295,-0.2942,-0.2942,-0.2948,-0.2984,-0.298,-0.2929,-0.2929,-0.2929,-0.2929,-0.2929,-0.2929,-0.2482,-0.2499,-0.2524,-0.2555,-0.2583,-0.261,-0.2628,-0.2654,-0.2681,-0.2717,-0.2743,-0.2771,-0.281,-0.2848,-0.2879,-0.2891,-0.2902,-0.2889,-0.2907,-0.2939,-0.2945,-0.2952,-0.2949,-0.2891,-0.2891,-0.2869,-0.2869,-0.2869]},{"header":{"parameterUnit":"m.s-1","parameterCategory":1,"la1":30.2991,"la2":30.254,"lo1":-89.0895,"lo2":-89.0444,"dy":0.0017,"dx":0.0017,"nx":28,"ny":28,"refTime":"2025-04-05T03:00:00:Z","depth":0,"parameterNumber":3,"parameterNumberName":"V-component_of_WINDS"},"data":[0,0,0,0,0,0,0,0,0,0,0,0,0,0,0,0,0,0,0,0,0,0,0,0,0,0,0,0,0,0,0,0,0,0,0,0,0,0,0,0,0,0,0,0,0,0,0,0,0,0,0,0,0,0,0,0,0,0,6.9061,6.9063,0,6.9235,6.9236,6.9238,6.925,6.9248,6.9246,6.9244,6.9423,6.943,6.9436,0,0,0,0,0,0,0,0,0,0,0,0,0,6.8743,6.8748,6.9061,6.9063,6.9065,6.9234,6.9237,6.9239,6.925,6.9248,6.9245,6.9243,6.9421,6.9429,6.9437,0,0,0,0,0,0,0,0,0,0,0,0,0,6.8895,6.875,6.9061,6.9091,6.9096,6.9234,6.9237,6.924,6.925,6.9247,6.9245,6.9242,6.9419,6.9428,6.9438,6.9558,0,0,6.9468,6.9472,0,0,0,0,0,0,0,0,6.8886,6.8907,6.9084,6.9089,6.9094,6.9217,6.919,6.9346,6.9251,6.9192,6.9244,6.924,6.9357,6.9372,6.9411,6.9566,6.9574,6.9469,6.9475,6.9479,6.9482,0,0,0,0,0,0,0,6.8876,6.8899,6.913,6.9087,6.9093,6.9097,6.9116,6.922,6.9289,6.9197,6.9198,6.9218,6.9359,6.9401,6.9415,6.9577,6.9469,6.9478,6.9484,6.9488,6.9842,6.9845,0,0,0,0,0,0,6.8859,6.889,6.9124,6.9135,6.8981,6.9105,6.9126,6.9181,6.9288,6.9301,6.922,6.9218,6.9386,6.9404,6.9422,6.9571,6.9479,6.9489,6.9494,6.9839,6.9843,6.9847,0,0,0,0,0,0,6.8852,6.888,6.9117,6.9013,6.9044,6.9114,6.9176,6.9186,6.9228,6.9306,6.9318,6.9251,6.9384,6.9408,6.9525,6.9578,6.9493,6.9502,6.9834,6.984,6.9845,6.987,0,0,0,0,0,0,6.8843,6.8877,6.8923,6.9014,6.9049,6.9216,6.9179,6.9191,6.9245,6.9243,6.9337,6.935,6.9384,6.951,6.9534,6.959,6.951,6.983,6.9837,6.9843,6.9865,6.9875,6.9885,0,0,0,0,0,6.8831,6.8923,6.8925,6.8953,6.9107,6.9219,6.9239,6.9276,6.9249,6.9296,6.9346,6.9347,6.9567,6.9521,6.9549,6.9609,6.9827,6.9835,6.9842,6.986,6.9873,6.9884,0,0,0,0,0,0,6.8836,6.8935,6.8939,6.9062,6.9132,6.9221,6.9281,6.9288,6.9368,6.9363,6.9405,6.9427,6.9543,6.9587,6.9534,6.9732,6.9694,6.9708,6.9698,6.9711,6.9721,6.9709,6.9518,0,0,0,0,0,6.8851,6.8933,6.9015,6.9117,6.9152,6.921,6.926,6.9282,6.9357,6.9387,6.9446,6.9519,6.9605,6.966,6.9743,6.9871,6.9893,6.9926,6.9935,6.9943,6.9955,7.0028,7.0044,6.9872,6.9872,6.9872,0,0,6.8884,6.8948,6.8997,6.9119,6.9176,6.9261,6.9235,6.9326,6.939,6.9401,6.9515,6.9561,6.9645,6.9768,6.9826,6.9809,7.0007,6.9953,6.9959,6.9967,7.0038,7.0054,7.0069,6.9877,6.9876,6.9876,0,0,6.8987,6.9043,6.9135,6.9192,6.9279,6.9318,6.9339,6.9428,6.9459,6.9574,6.9585,6.9661,6.9808,6.9868,6.9918,7.0046,7.0051,7.0072,7.0124,7.0195,7.0209,7.0221,7.0269,7.0285,7.0083,7.0083,7.0083,0,6.9017,6.9145,6.9181,6.9272,6.9326,6.934,6.9434,6.9488,6.9597,6.9635,6.9615,6.98,6.9858,6.9997,7.0028,7.0067,7.0095,7.0062,7.0203,7.0216,7.0228,7.0274,7.0292,7.0085,7.0085,7.0085,7.0085,0,6.9179,6.9267,6.9331,6.9436,6.9497,6.9589,6.964,6.9698,6.9715,6.9756,6.9875,6.9944,7.0043,7.0077,7.0094,7.0219,7.0207,7.0194,7.0158,7.0246,7.029,7.0308,7.0088,7.0088,7.0087,7.0087,0,0,6.929,6.9415,6.9438,6.9487,6.9583,6.9653,6.9746,6.9842,6.9892,6.9967,7.0048,7.0172,7.0162,7.0219,7.0243,7.0305,7.0405,7.0286,7.0289,7.0307,7.0549,7.0559,7.0579,7.0408,7.0411,7.0414,7.0543,0,6.9406,6.9571,6.9607,6.9751,6.9834,6.9849,6.993,6.9999,7.0041,7.0118,7.0164,7.0253,7.0231,7.0266,7.0328,7.0379,7.0454,7.037,7.0485,7.0489,7.0465,7.0601,7.0612,7.073,7.056,7.0563,7.0565,0,6.9563,6.9642,6.9793,6.9881,6.9917,6.999,7.0082,7.0155,7.0235,7.0261,7.0325,7.0343,7.0442,7.04,7.0539,7.0481,7.053,7.0563,7.0568,7.0582,7.0533,7.062,7.0768,7.0787,7.0592,7.059,7.0588,0,6.9631,6.9775,6.9886,6.9927,7.0031,7.0082,7.0128,7.0204,7.0261,7.0341,7.0378,7.0469,7.052,7.0591,7.0634,7.0599,7.077,7.0731,7.0796,7.0795,7.0832,7.083,7.0992,7.0861,7.0861,7.086,7.086,0,6.9758,6.985,6.9918,6.9986,7.0091,7.0132,7.0235,7.0281,7.0349,7.0427,7.0445,7.0518,7.057,7.0651,7.0685,7.0796,7.0818,7.0843,7.0852,7.0843,7.084,7.0877,7.087,7.0865,7.0864,7.0863,7.0862,0,6.9852,6.9901,7.0022,7.0111,7.0136,7.021,7.0287,7.0354,7.0396,7.0495,7.052,7.0586,7.0683,7.0732,7.0852,7.0876,7.1001,7.1004,7.0975,7.0978,7.1041,7.1036,7.1235,7.1264,7.1111,7.1112,7.1114,0,6.9931,7.0002,7.0099,7.0153,7.02,7.0286,7.0343,7.0386,7.0446,7.0542,7.0599,7.0696,7.0776,7.093,7.0989,7.1082,7.1088,7.1151,7.1102,7.1092,7.1092,7.1088,7.1096,7.1161,7.1162,7.1163,7.1164,0,7.0065,7.0086,7.0168,7.0259,7.0327,7.0401,7.0473,7.0516,7.0572,7.0638,7.0737,7.0799,7.0922,7.1019,7.1116,7.1165,7.1175,7.1179,7.12,7.1192,7.1173,7.1187,7.1,7.1175,7.1174,7.1173,7.1172,7.1172,7.0156,7.0221,7.03,7.0391,7.045,7.0518,7.0587,7.0637,7.072,7.0823,7.0844,7.0949,7.1028,7.116,7.1212,7.1296,7.1283,7.1311,7.1319,7.1326,7.133,7.1158,7.1313,7.1313,7.1313,7.1313,7.1313,0,7.0293,7.0345,7.0428,7.0529,7.0602,7.0603,7.0684,7.0745,7.0837,7.091,7.0989,7.1103,7.1198,7.1265,7.1362,7.1417,7.1424,7.1441,7.1438,7.145,7.1335,7.1309,7.1434,7.1433,7.1433,7.1433,7.1433,7.1433,7.0373,7.0484,7.0515,7.0656,7.0708,7.081,7.0857,7.0921,7.0979,7.1106,7.1185,7.1228,7.1299,7.1402,7.1489,7.1507,7.1543,7.156,7.1578,7.147,7.1457,7.1445,7.1421,7.1567,7.1567,7.1685,7.1687,7.1687]}]]